LEMUR-2 NICK-ALLAIN

Last updated on June 10, 2016, 9:36 a.m. UTC

1 41488U 98067JJ  16162.13552078  .00025989  00000-0  36691-3 0  9993
2 41488  51.6441  93.0108 0001182  14.0703  92.7988 15.56389350  3513

Satellite is not in orbit.